Regional Weather Roundup
Issued by NWS Goodland, KS

Home | Current Version | Previous Version | Text Only | Print | Product List | Glossary Off
Versions: 1 2 3 4 5 6 7 8 9 10 11 12 13 14 15 16 17 18 19 20 21 22 23 24 25 26 27 28 29 30 31 32 33 34 35 36 37 38 39 40 41 42 43 44 45 46 47 48 49 50

000
ASUS43 KGLD 251508
RWRGLD

GOODLAND FORECAST AREA HOURLY WEATHER ROUNDUP
NATIONAL WEATHER SERVICE GOODLAND KS
900 AM MDT FRI JUL 25 2014

...OFFICIAL OBSERVATIONS...

CITY           SKY/WX    TMP DP  RH WIND       PRES   REMARKS
GOODLAND KS    SUNNY     85  54  34 N14       29.95R
HILL CITY KS   PTSUNNY   86  62  44 SW10      29.83S
IMPERIAL NEB   MOSUNNY   77  61  57 N12       29.93R
MCCOOK NEB     MOSUNNY   81  60  48 W8        29.86R
AKRON CO       PTSUNNY   76  51  41 N20       30.05R
BURLINGTON CO  SUNNY     84  52  33 N14       30.00R
LIMON CO       SUNNY     83  48  29 N14       30.11R
$$

...UNOFFICIAL OBSERVATIONS...

CITY           SKY/WX    TMP DP  RH WIND       PRES   REMARKS
COLBY KS       SUNNY     84  63  48 NW12G17   29.91S
GOVE KS          N/A     84  32  15 MISG        N/A
LENORA KS        N/A     83  32  16 MISG        N/A
NORTON KS      SUNNY     86  57  37 SW7       29.82F
OBERLIN KS     FAIR      86  55  35 NW12      29.86S
SHARON SPRINGS   N/A     88  58  35 W6          N/A
WAKEENEY KS      N/A     86  57  36 MISG        N/A
TRENTON NEB      N/A     79  32  18 NW17        N/A
KIT CARSON CO    N/A     90  54  29 N10         N/A
WRAY CO          N/A     82  54  36 N13       29.98
YUMA CO          N/A     79  53  40 N15         N/A
$$


USA.gov is the U.S. government's official web portal to all federal, state and local government web resources and services.